NORTHERN NASSAU  -  Coastal Flood Statement Coastal Flood Statement     Rip Current Statement Rip Current Statement        NORTHERN QUEENS  -  Coastal Flood Statement Coastal Flood Statement     Rip Current Statement Rip Current Statement        SOUTHERN NASSAU  -  Coastal Flood Statement Coastal Flood Statement     Rip Current Statement Rip Current Statement        SOUTHERN QUEENS  -  Coastal Flood Statement Coastal Flood Statement     Rip Current Statement Rip Current Statement        NORTHEAST SUFFOLK  -  Rip Current Statement Rip Current Statement        NORTHWEST SUFFOLK  -  Rip Current Statement Rip Current Statement        SOUTHEAST SUFFOLK  -  Rip Current Statement Rip Current Statement        SOUTHWEST SUFFOLK  -  Rip Current Statement Rip Current Statement      

Active alerts

Northern Queens
  Details for Northern Queens Coastal Flood Statement  +1 additional alert
Southern Queens
  Details for Southern Queens Coastal Flood Statement  +1 additional alert
Northern Nassau
  Details for Northern Nassau Coastal Flood Statement  +1 additional alert
Southern Nassau
  Details for Southern Nassau Coastal Flood Statement  +1 additional alert
Northwest Suffolk
  Details for Northwest Suffolk Rip Current Statement
Southwest Suffolk
  Details for Southwest Suffolk Rip Current Statement
Northeast Suffolk
  Details for Northeast Suffolk Rip Current Statement
Southeast Suffolk
  Details for Southeast Suffolk Rip Current Statement


WXM80 ListenWXM80 Stop

You find our weather info also at:

UK Metoffice

WeatherCloud

Weather Underground

Northeastern Weather Network

AWEKAS

Citizen Weather Observer Program (CWOP)

HAMweather, WeatherForYou, PWS Weather


Weather Underground History page Text

Daily Summary for January 11, 2018 Units:  Metric    English   Both
« Previous Day
Next Day »
Daily Weekly Monthly Yearly Custom
  High: Low: Average:
Temperature: 7.3 °C 0.6 °C 3.8 °C
Dew Point: 6.8 °C -0.7 °C 2.4 °C
Humidity: 97 % 81 % 90 %
Wind Speed: 4 km/h 0 km/h 0.3 km/h
Wind Gust: 7.4 km/h - -
Wind:- - West
Pressure: 1030.4 hPa 1014.8 hPa -
Precipitation: 0 mm    
Historical Graphs
 
 
Tabular Data for January 11, 2018
Time Temperature Dew Point Pressure Wind Wind Speed Wind Gust Humidity Rainfall Rate (Hourly)
00:07 3.1 °C 1.4 °C 1029.7 hPa Calm     89 % 0 mm
00:22 3.1 °C 1.6 °C 1029.3 hPa Calm     90 % 0 mm
00:27 3.1 °C 1.6 °C 1029.3 hPa Calm     90 % 0 mm
00:33 3 °C 1.5 °C 1029.3 hPa Calm     90 % 0 mm
00:38 3 °C 1.5 °C 1029.3 hPa Calm     90 % 0 mm
00:46 2.9 °C 1.4 °C 1020.5 hPa Calm     90 % 0 mm
00:51 2.8 °C 1.3 °C 1029 hPa Calm     90 % 0 mm
00:59 2.7 °C 1.1 °C 1020.9 hPa WSW 3.1 km/h 5.6 km/h 89 % 0 mm
01:12 2.5 °C 1 °C 1029.3 hPa Calm     90 % 0 mm
01:18 2.4 °C 0.9 °C 1029.3 hPa Calm     90 % 0 mm
01:29 2.2 °C 0.8 °C 1020.9 hPa Calm     90 % 0 mm
01:34 2.2 °C 0.7 °C 1029.3 hPa Calm     90 % 0 mm
01:56 1.8 °C 0.2 °C 1029.3 hPa Calm     89 % 0 mm
02:02 1.7 °C 0.3 °C 1029.3 hPa Calm     90 % 0 mm
02:07 1.7 °C 0.2 °C 1029.3 hPa Calm     90 % 0 mm
02:15 1.6 °C 0.1 °C 1029 hPa Calm     90 % 0 mm
02:21 1.6 °C 0.1 °C 1029.3 hPa Calm     90 % 0 mm
02:27 1.5 °C 0.1 °C 1029 hPa Calm     90 % 0 mm
02:39 1.4 °C 0 °C 1029 hPa Calm     90 % 0 mm
02:46 1.3 °C -0.1 °C 1029 hPa Calm     90 % 0 mm
02:54 1.2 °C -0.2 °C 1029 hPa Calm     90 % 0 mm
03:00 1.2 °C -0.3 °C 1029 hPa Calm     90 % 0 mm
03:06 1.1 °C -0.4 °C 1028.7 hPa Calm     90 % 0 mm
03:12 0.9 °C -0.5 °C 1028.7 hPa Calm     90 % 0 mm
03:25 0.8 °C -0.7 °C 1020.2 hPa Calm     90 % 0 mm
03:37 0.7 °C -0.6 °C 1020.2 hPa Calm     91 % 0 mm
03:47 0.6 °C -0.7 °C 1028.7 hPa Calm     91 % 0 mm
03:53 0.6 °C -0.7 °C 1028.7 hPa Calm     91 % 0 mm
04:16 0.7 °C -0.5 °C 1028.7 hPa Calm     92 % 0 mm
04:21 0.7 °C -0.4 °C 1028.7 hPa Calm     92 % 0 mm
04:26 0.7 °C -0.4 °C 1028.7 hPa Calm     92 % 0 mm
04:33 0.8 °C -0.4 °C 1020.2 hPa Calm     92 % 0 mm
04:38 0.8 °C -0.4 °C 1028.7 hPa Calm     92 % 0 mm
04:45 0.8 °C -0.2 °C 1028.7 hPa Calm     93 % 0 mm
04:50 0.8 °C -0.2 °C 1028.7 hPa Calm     93 % 0 mm
04:56 0.9 °C -0.1 °C 1028.7 hPa Calm     93 % 0 mm
05:07 0.9 °C -0.1 °C 1028.7 hPa Calm     93 % 0 mm
05:20 1 °C 0 °C 1028.7 hPa Calm     93 % 0 mm
05:25 1 °C 0 °C 1029 hPa Calm     93 % 0 mm
05:30 1.1 °C 0.1 °C 1029 hPa Calm     93 % 0 mm
05:39 1.1 °C 0.1 °C 1029 hPa Calm     93 % 0 mm
05:44 1.1 °C 0.1 °C 1029 hPa Calm     93 % 0 mm
05:48 1.1 °C 0.1 °C 1029 hPa Calm     93 % 0 mm
06:04 1.2 °C 0.2 °C 1029 hPa Calm     93 % 0 mm
06:09 1.2 °C 0.4 °C 1029 hPa Calm     94 % 0 mm
06:14 1.3 °C 0.4 °C 1029 hPa Calm     94 % 0 mm
06:23 1.3 °C 0.5 °C 1029 hPa Calm     94 % 0 mm
06:40 1.4 °C 0.6 °C 1029 hPa Calm     94 % 0 mm
06:46 1.5 °C 0.7 °C 1029 hPa Calm     94 % 0 mm
07:09 1.8 °C 0.9 °C 1020.2 hPa Calm     94 % 0 mm
07:17 1.8 °C 0.9 °C 1029 hPa Calm     94 % 0 mm
07:23 1.9 °C 1 °C 1029 hPa Calm     94 % 0 mm
07:28 1.9 °C 1.1 °C 1029 hPa Calm     94 % 0 mm
07:34 1.9 °C 1.1 °C 1029 hPa Calm     94 % 0 mm
07:39 2 °C 1.1 °C 1028.7 hPa Calm     94 % 0 mm
07:44 2.1 °C 1.2 °C 1028.7 hPa Calm     94 % 0 mm
07:49 2.1 °C 1.2 °C 1029 hPa Calm     94 % 0 mm
07:54 2.2 °C 1.3 °C 1029 hPa Calm   1.9 km/h 94 % 0 mm
08:09 2.4 °C 1.6 °C 1029 hPa Calm     94 % 0 mm
08:14 2.5 °C 1.6 °C 1029 hPa Calm     94 % 0 mm
08:30 2.9 °C 2 °C 1029.3 hPa Calm     94 % 0 mm
08:36 3 °C 2.1 °C 1029.3 hPa Calm     94 % 0 mm
08:41 3.2 °C 2.5 °C 1029.3 hPa Calm     95 % 0 mm
08:47 3.4 °C 2.5 °C 1029.3 hPa Calm     94 % 0 mm
08:52 3.6 °C 2.7 °C 1029.7 hPa Calm     94 % 0 mm
08:57 3.7 °C 2.8 °C 1030 hPa Calm     94 % 0 mm
09:07 4.1 °C 3.2 °C 1021.6 hPa North 0.6 km/h 5.6 km/h 94 % 0 mm
09:15 4 °C 2.8 °C 1021.6 hPa North 1.9 km/h 3.7 km/h 92 % 0 mm
09:22 4 °C 2.7 °C 1030.4 hPa Calm   1.9 km/h 91 % 0 mm
09:27 3.9 °C 2.4 °C 1030.4 hPa Calm     90 % 0 mm
09:32 3.9 °C 2.4 °C 1030.4 hPa NNW 0.3 km/h 1.9 km/h 90 % 0 mm
09:39 3.9 °C 2.4 °C 1021.9 hPa NNW 0.5 km/h 3.2 km/h 90 % 0 mm
09:44 3.9 °C 2.4 °C 1021.9 hPa NNW 1.1 km/h 3.7 km/h 90 % 0 mm
09:58 3.9 °C 2.2 °C 1030.4 hPa NNW 0.5 km/h 1.9 km/h 89 % 0 mm
10:03 3.9 °C 2.2 °C 1021.9 hPa NNW 0.3 km/h 1.9 km/h 89 % 0 mm
10:10 3.9 °C 2.3 °C 1021.9 hPa Calm     89 % 0 mm
10:16 3.9 °C 2.2 °C 1030.4 hPa Calm     89 % 0 mm
10:21 3.9 °C 2.2 °C 1030.4 hPa Calm     89 % 0 mm
10:30 3.9 °C 2.3 °C 1021.6 hPa Calm   1.9 km/h 89 % 0 mm
10:36 3.9 °C 2.3 °C 1030 hPa Calm     89 % 0 mm
10:41 4 °C 2.3 °C 1030 hPa Calm     89 % 0 mm
10:46 4.1 °C 2.4 °C 1029.7 hPa Calm     89 % 0 mm
10:59 4.3 °C 2.6 °C 1029.7 hPa Calm     89 % 0 mm
11:06 4.4 °C 2.7 °C 1029.7 hPa Calm     89 % 0 mm
11:15 4.7 °C 3.2 °C 1029.3 hPa Calm     90 % 0 mm
11:20 4.8 °C 3.3 °C 1029.3 hPa Calm     90 % 0 mm
11:29 5.2 °C 3.7 °C 1029 hPa Calm     90 % 0 mm
11:37 5.6 °C 4.1 °C 1029 hPa Calm     90 % 0 mm
11:43 5.8 °C 4.3 °C 1020.2 hPa Calm     90 % 0 mm
11:52 6.4 °C 4.4 °C 1028.7 hPa NNW 0.2 km/h 1.9 km/h 87 % 0 mm
11:57 6.6 °C 4.2 °C 1020.2 hPa Calm   1.9 km/h 85 % 0 mm
12:04 6.6 °C 3.9 °C 1028.7 hPa Calm     83 % 0 mm
12:09 6.6 °C 3.8 °C 1028.3 hPa Calm   1.6 km/h 82 % 0 mm
12:17 6.6 °C 3.7 °C 1028.3 hPa NNW 0.2 km/h 3.7 km/h 82 % 0 mm
12:23 6.6 °C 3.7 °C 1019.9 hPa Calm   1.9 km/h 82 % 0 mm
12:28 6.6 °C 3.7 °C 1019.5 hPa NNW 0.3 km/h 1.9 km/h 82 % 0 mm
12:33 6.5 °C 3.7 °C 1028 hPa NNW 0.3 km/h 1.9 km/h 82 % 0 mm
12:46 6.4 °C 3.4 °C 1028 hPa WNW 1.9 km/h 3.7 km/h 81 % 0 mm
12:54 6.3 °C 3.3 °C 1028 hPa Calm   1.9 km/h 81 % 0 mm
12:59 6.3 °C 3.3 °C 1019.2 hPa Calm   1.9 km/h 81 % 0 mm
13:04 6.2 °C 3.2 °C 1027.7 hPa WNW 0.3 km/h 3.7 km/h 81 % 0 mm
13:12 6.1 °C 3.1 °C 1027.7 hPa Calm   1.9 km/h 81 % 0 mm
13:19 5.9 °C 3.1 °C 1027.7 hPa NW 0.3 km/h 3.7 km/h 82 % 0 mm
13:24 5.9 °C 3.1 °C 1019.2 hPa Calm   1.9 km/h 82 % 0 mm
13:38 5.7 °C 3 °C 1027.7 hPa NNW 1.1 km/h 3.7 km/h 83 % 0 mm
13:46 5.5 °C 2.8 °C 1027.7 hPa NNW 0.5 km/h 1.9 km/h 83 % 0 mm
13:52 5.4 °C 2.9 °C 1027.7 hPa Calm   1.9 km/h 84 % 0 mm
13:57 5.4 °C 2.9 °C 1027.7 hPa Calm   1.9 km/h 84 % 0 mm
14:03 5.3 °C 2.8 °C 1027.7 hPa NNW 1.1 km/h 3.7 km/h 84 % 0 mm
14:08 5.2 °C 2.9 °C 1027.7 hPa NNW 1.1 km/h 1.9 km/h 85 % 0 mm
14:17 5.2 °C 2.8 °C 1027.7 hPa NNW 0.3 km/h 1.9 km/h 85 % 0 mm
14:41 5.1 °C 2.9 °C 1027.7 hPa NNW 0.3 km/h 1.9 km/h 86 % 0 mm
14:46 5.2 °C 3 °C 1019.2 hPa Calm   1.9 km/h 86 % 0 mm
14:51 5.1 °C 2.9 °C 1027.7 hPa NNW 0.2 km/h 1.9 km/h 86 % 0 mm
14:56 5.1 °C 2.9 °C 1027.7 hPa NNW 1.8 km/h 3.7 km/h 86 % 0 mm
15:08 4.9 °C 2.8 °C 1027.7 hPa Calm     86 % 0 mm
15:15 4.9 °C 2.8 °C 1027.7 hPa Calm   3.7 km/h 86 % 0 mm
15:21 4.9 °C 2.7 °C 1019.2 hPa Calm     86 % 0 mm
15:27 4.9 °C 2.9 °C 1019.2 hPa Calm     87 % 0 mm
15:32 4.8 °C 2.8 °C 1027.7 hPa NNW 0.6 km/h 1.9 km/h 87 % 0 mm
15:37 4.8 °C 2.8 °C 1027.7 hPa Calm     87 % 0 mm
15:53 4.8 °C 2.8 °C 1019.2 hPa Calm     87 % 0 mm
15:58 4.7 °C 2.7 °C 1028 hPa Calm     87 % 0 mm
16:03 4.7 °C 2.9 °C 1027.7 hPa Calm     88 % 0 mm
16:08 4.7 °C 2.9 °C 1019.2 hPa Calm     88 % 0 mm
16:15 4.8 °C 2.9 °C 1027.7 hPa Calm     88 % 0 mm
16:23 4.8 °C 2.9 °C 1027.7 hPa Calm     88 % 0 mm
16:30 4.8 °C 2.9 °C 1019.2 hPa Calm     88 % 0 mm
16:39 4.7 °C 2.9 °C 1019.2 hPa Calm     88 % 0 mm
16:52 4.6 °C 2.6 °C 1019.2 hPa Calm     87 % 0 mm
17:05 4.4 °C 2.4 °C 1019.2 hPa Calm     87 % 0 mm
17:11 4.3 °C 2.2 °C 1019.2 hPa Calm     86 % 0 mm
17:16 4.2 °C 2.2 °C 1018.8 hPa Calm     87 % 0 mm
17:22 4.2 °C 2.2 °C 1018.8 hPa Calm     87 % 0 mm
17:32 4.1 °C 2.1 °C 1018.8 hPa Calm     87 % 0 mm
17:43 3.8 °C 1.9 °C 1018.8 hPa Calm     87 % 0 mm
17:48 3.8 °C 1.8 °C 1018.8 hPa Calm     87 % 0 mm
18:02 3.6 °C 1.8 °C 1018.5 hPa Calm     88 % 0 mm
18:07 3.5 °C 1.7 °C 1018.5 hPa Calm     88 % 0 mm
18:12 3.4 °C 1.7 °C 1018.5 hPa Calm     88 % 0 mm
18:13 3.4 °C 1.7 °C 1018.5 hPa Calm     88 % 0 mm
18:18 3.4 °C 1.7 °C 1018.5 hPa Calm     89 % 0 mm
18:23 3.3 °C 1.7 °C 1018.5 hPa Calm     89 % 0 mm
18:41 3.1 °C 1.5 °C 1018.5 hPa Calm     89 % 0 mm
18:51 3 °C 1.4 °C 1018.2 hPa Calm     89 % 0 mm
18:52 3 °C 1.4 °C 1018.2 hPa Calm     89 % 0 mm
19:04 2.9 °C 1.3 °C 1017.8 hPa Calm     89 % 0 mm
19:10 2.8 °C 1.3 °C 1017.8 hPa Calm     90 % 0 mm
19:15 2.8 °C 1.5 °C 1017.5 hPa Calm     91 % 0 mm
19:39 3.7 °C 3 °C 1017.2 hPa SSW 3.2 km/h 5.6 km/h 95 % 0 mm
19:47 4.2 °C 3.4 °C 1017.2 hPa South 0.5 km/h 3.7 km/h 95 % 0 mm
20:05 5.3 °C 4.7 °C 1016.8 hPa SSW 0.3 km/h 1.9 km/h 96 % 0 mm
20:13 5.6 °C 5 °C 1017.2 hPa SSW 1.4 km/h 5.6 km/h 96 % 0 mm
20:21 5.8 °C 5.3 °C 1016.8 hPa Calm   1.6 km/h 96 % 0 mm
20:26 6.1 °C 5.7 °C 1016.8 hPa Calm   4.8 km/h 97 % 0 mm
20:33 6 °C 5.4 °C 1016.8 hPa NW 3.4 km/h 5.6 km/h 96 % 0 mm
20:43 5.8 °C 5.2 °C 1016.5 hPa Calm     96 % 0 mm
20:44 5.7 °C 5.1 °C 1016.5 hPa Calm     96 % 0 mm
20:51 5.6 °C 4.9 °C 1016.5 hPa South 4 km/h 7.4 km/h 96 % 0 mm
20:56 5.4 °C 4.8 °C 1016.5 hPa South 1.6 km/h 5.6 km/h 96 % 0 mm
21:03 5.4 °C 4.8 °C 1016.5 hPa South 3.7 km/h 5.6 km/h 96 % 0 mm
21:08 5.6 °C 4.9 °C 1016.1 hPa South 1.8 km/h 5.6 km/h 96 % 0 mm
21:13 5.8 °C 5.3 °C 1016.1 hPa South 3.5 km/h 7.4 km/h 97 % 0 mm
21:18 6.2 °C 5.8 °C 1016.1 hPa South 3.7 km/h 5.6 km/h 97 % 0 mm
21:27 6.6 °C 6.1 °C 1016.1 hPa South 2.6 km/h 5.6 km/h 97 % 0 mm
21:32 6.8 °C 6.3 °C 1016.1 hPa South 2.1 km/h 5.6 km/h 97 % 0 mm
21:41 7 °C 6.6 °C 1015.8 hPa South 1.8 km/h 5.6 km/h 97 % 0 mm
21:47 7.1 °C 6.7 °C 1016.1 hPa South 0.3 km/h 1.9 km/h 97 % 0 mm
21:57 7.3 °C 6.8 °C 1015.8 hPa Calm   1.9 km/h 97 % 0 mm
22:05 7 °C 6.6 °C 1015.8 hPa Calm     97 % 0 mm
22:11 6.7 °C 6.1 °C 1015.8 hPa Calm     96 % 0 mm
22:16 6.5 °C 5.9 °C 1015.8 hPa Calm     96 % 0 mm
22:28 6.2 °C 5.6 °C 1015.5 hPa Calm     96 % 0 mm
22:37 6.1 °C 5.4 °C 1015.1 hPa Calm     96 % 0 mm
22:42 5.9 °C 5.3 °C 1015.1 hPa South 0.3 km/h 1.9 km/h 96 % 0 mm
22:55 5.5 °C 4.8 °C 1015.5 hPa Calm     95 % 0 mm
23:04 5.1 °C 4.4 °C 1015.5 hPa WNW 0.6 km/h 4.8 km/h 95 % 0 mm
23:09 4.9 °C 4.2 °C 1015.5 hPa WNW 1.4 km/h 3.7 km/h 95 % 0 mm
23:22 4.3 °C 3.4 °C 1015.1 hPa Calm     94 % 0 mm
23:31 4 °C 3.1 °C 1015.1 hPa Calm     94 % 0 mm
23:38 3.7 °C 2.8 °C 1015.1 hPa Calm     94 % 0 mm
23:45 3.6 °C 2.7 °C 1015.1 hPa Calm     94 % 0 mm
23:53 3.4 °C 2.5 °C 1014.8 hPa Calm     94 % 0 mm
Crab Meadow Weather
Compliments of Weather Underground - 2.25 mb

Script developed by  Jim McMurry - jmcmurry@mwt.net Adapted for the template by  Wim van der Kuil - Leuven-Template.eu

Weather Terms: Tornado Warning - Strong rotation in a thunderstorm is indicated by Doppler radar or a tornado is sighted by skywarn spotters. These warnings are issued on a county by county basis by the local Weather Forecast office in Upton.